RYR97SY LIME-LFBT

Flight info

Callsign RYR97SY
Flight time 1h 23m
Altitude 37000
Route VOG DCT GEKBA DCT VAMTU DCT KOLON DCT GANGU DCT PADKO/N0447F380 DCT FJR DCT GAI DCT AGN
Aircraft B38M/M-SDE1FGHILORVWXY/HB1

Departure

Time 2026-05-04 16:35
Airport Il Caravaggio International Airport (LIME)

Arrival

Time 2026-05-04 17:58
Airport Tarbes-Lourdes-Pyrénées Airport (LFBT)
Time Latitude Longitude Altitude Speed Heading
2026-05-04 16:10 45.66685 9.69801 790 ft 0 kts 195°
2026-05-04 16:25 45.66705 9.69808 790 ft 4 kts 191°
2026-05-04 16:26 45.66785 9.69784 790 ft 0 kts 111°
2026-05-04 16:29 45.66737 9.70020 790 ft 15 kts 102°
2026-05-04 16:30 45.66633 9.70596 790 ft 23 kts 105°
2026-05-04 16:31 45.66545 9.71061 790 ft 26 kts 105°
2026-05-04 16:31 45.66451 9.71682 790 ft 23 kts 72°
2026-05-04 16:32 45.66387 9.72329 790 ft 22 kts 104°
2026-05-04 16:33 45.66437 9.72577 790 ft 3 kts 291°
2026-05-04 16:33 45.66447 9.72501 790 ft 6 kts 285°
2026-05-04 16:34 45.66664 9.71335 790 ft 134 kts 285°
2026-05-04 16:34 45.66941 9.69833 1167 ft 163 kts 284°
2026-05-04 16:35 45.66606 9.64556 3558 ft 208 kts 221°
2026-05-04 16:35 45.62594 9.61759 4963 ft 221 kts 233°
2026-05-04 16:36 45.61818 9.59924 5216 ft 221 kts 234°
2026-05-04 16:36 45.59040 9.58549 5509 ft 230 kts 155°
2026-05-04 16:37 45.56724 9.61644 5711 ft 235 kts 152°
2026-05-04 16:37 45.55161 9.62080 5779 ft 233 kts 187°
2026-05-04 16:37 45.51881 9.61521 6052 ft 239 kts 183°
2026-05-04 16:38 45.48550 9.61426 6107 ft 238 kts 179°
2026-05-04 16:39 45.43431 9.61700 6558 ft 264 kts 176°
2026-05-04 16:39 45.39508 9.62017 7899 ft 298 kts 176°
2026-05-04 16:40 45.35766 9.60409 10477 ft 281 kts 219°
2026-05-04 16:40 45.32982 9.56066 11715 ft 312 kts 227°
2026-05-04 16:41 45.30078 9.51340 13378 ft 321 kts 228°
2026-05-04 16:41 45.26102 9.44867 15351 ft 331 kts 228°
2026-05-04 16:42 45.21471 9.37337 17430 ft 342 kts 229°
2026-05-04 16:43 45.18303 9.32199 18698 ft 350 kts 229°
2026-05-04 16:43 45.15082 9.26984 19828 ft 356 kts 229°
2026-05-04 16:43 45.13442 9.24334 20389 ft 359 kts 228°
2026-05-04 16:44 45.06743 9.13528 22566 ft 371 kts 228°
2026-05-04 16:45 45.03302 9.07994 23618 ft 377 kts 228°
2026-05-04 16:46 44.98071 8.99600 24968 ft 383 kts 229°
2026-05-04 16:46 44.94651 8.93765 25879 ft 386 kts 231°
2026-05-04 16:47 44.91285 8.87861 26750 ft 389 kts 231°
2026-05-04 16:47 44.87865 8.81897 27609 ft 393 kts 231°
2026-05-04 16:48 44.82685 8.72891 29021 ft 393 kts 232°
2026-05-04 16:48 44.80955 8.69890 29399 ft 395 kts 232°
2026-05-04 16:49 44.77478 8.63870 30152 ft 398 kts 232°
2026-05-04 16:49 44.73989 8.57840 30751 ft 401 kts 232°
2026-05-04 16:50 44.70448 8.51733 31314 ft 405 kts 232°
2026-05-04 16:50 44.66877 8.45586 31888 ft 408 kts 232°
2026-05-04 16:51 44.63275 8.39401 32473 ft 410 kts 232°
2026-05-04 16:51 44.61470 8.36308 32836 ft 409 kts 232°
2026-05-04 16:51 44.57879 8.30162 33762 ft 404 kts 232°
2026-05-04 16:52 44.54346 8.24127 34414 ft 402 kts 232°
2026-05-04 16:52 44.52573 8.21104 34721 ft 401 kts 232°
2026-05-04 16:53 44.49030 8.15071 35274 ft 401 kts 232°
2026-05-04 16:53 44.43710 8.06036 36065 ft 399 kts 232°
2026-05-04 16:54 44.41939 8.03036 36299 ft 399 kts 232°
2026-05-04 16:55 44.34895 7.91129 37300 ft 396 kts 232°
2026-05-04 16:55 44.31378 7.85201 37754 ft 395 kts 232°
2026-05-04 16:56 44.27867 7.79296 38090 ft 395 kts 232°
2026-05-04 16:56 44.21822 7.71480 38121 ft 396 kts 225°
2026-05-04 16:57 44.15656 7.63879 38071 ft 395 kts 225°
2026-05-04 16:58 44.08368 7.52612 38069 ft 391 kts 231°
2026-05-04 17:00 44.03071 7.32264 38061 ft 391 kts 266°
2026-05-04 17:01 44.03145 7.13485 38077 ft 392 kts 268°
2026-05-04 17:02 44.03264 6.98311 38057 ft 392 kts 268°
2026-05-04 17:03 44.03347 6.86999 38067 ft 393 kts 268°
2026-05-04 17:03 44.03407 6.75656 38043 ft 389 kts 267°
2026-05-04 17:04 44.03478 6.60585 38018 ft 389 kts 267°
2026-05-04 17:05 44.03527 6.45613 38054 ft 388 kts 266°
2026-05-04 17:06 44.03551 6.34347 38009 ft 389 kts 266°
2026-05-04 17:07 44.03564 6.24371 38048 ft 389 kts 266°
2026-05-04 17:07 44.03568 6.15640 38027 ft 389 kts 266°
2026-05-04 17:08 44.03564 6.04338 38019 ft 391 kts 266°
2026-05-04 17:09 44.03553 5.96758 38040 ft 393 kts 266°
2026-05-04 17:09 44.03539 5.89176 38035 ft 392 kts 266°
2026-05-04 17:10 44.03482 5.70257 38058 ft 393 kts 265°
2026-05-04 17:11 44.03449 5.62609 38024 ft 397 kts 265°
2026-05-04 17:12 44.03391 5.51105 38022 ft 396 kts 265°
2026-05-04 17:13 44.03268 5.31949 38027 ft 397 kts 265°
2026-05-04 17:14 44.03147 5.16570 38000 ft 398 kts 265°
2026-05-04 17:15 44.03042 5.05028 37994 ft 398 kts 265°
2026-05-04 17:16 44.02884 4.89618 37999 ft 399 kts 265°
2026-05-04 17:17 44.02706 4.74217 37995 ft 400 kts 265°
2026-05-04 17:18 44.02506 4.58762 37976 ft 400 kts 265°
2026-05-04 17:19 44.02285 4.43272 37983 ft 402 kts 265°
2026-05-04 17:20 44.02041 4.27765 37958 ft 401 kts 264°
2026-05-04 17:20 44.01847 4.16181 37973 ft 402 kts 264°
2026-05-04 17:21 44.01566 4.00624 37966 ft 403 kts 264°
2026-05-04 17:22 44.01418 3.92832 37971 ft 403 kts 264°
2026-05-04 17:23 44.01107 3.77287 37977 ft 406 kts 264°
2026-05-04 17:24 44.00855 3.65454 37975 ft 408 kts 264°
2026-05-04 17:25 44.00502 3.49739 37967 ft 408 kts 264°
2026-05-04 17:26 44.00126 3.34006 37958 ft 408 kts 264°
2026-05-04 17:27 43.99628 3.14326 37953 ft 408 kts 264°
2026-05-04 17:28 43.99204 2.98593 37938 ft 408 kts 264°
2026-05-04 17:29 43.98530 2.75058 37930 ft 407 kts 264°
2026-05-04 17:31 43.97972 2.56750 37906 ft 406 kts 263°
2026-05-04 17:31 43.97611 2.45335 37016 ft 379 kts 263°
2026-05-04 17:32 43.97371 2.37999 36164 ft 386 kts 262°
2026-05-04 17:33 43.96998 2.26871 34672 ft 383 kts 261°
2026-05-04 17:33 43.96872 2.23171 34186 ft 382 kts 261°
2026-05-04 17:34 43.96492 2.12176 32660 ft 376 kts 261°
2026-05-04 17:34 43.96363 2.08558 32238 ft 373 kts 262°
2026-05-04 17:35 43.95981 1.97904 30936 ft 366 kts 262°
2026-05-04 17:35 43.95723 1.90876 30120 ft 363 kts 262°
2026-05-04 17:35 43.95592 1.87383 29640 ft 362 kts 262°
2026-05-04 17:36 43.95459 1.83857 29181 ft 368 kts 262°
2026-05-04 17:36 43.95238 1.80306 28688 ft 370 kts 260°
2026-05-04 17:36 43.94996 1.76741 28312 ft 370 kts 260°
2026-05-04 17:36 43.94763 1.73225 27955 ft 369 kts 260°
2026-05-04 17:37 43.94529 1.69694 27566 ft 366 kts 260°
2026-05-04 17:37 43.94298 1.66188 27194 ft 364 kts 260°
2026-05-04 17:37 43.94065 1.62692 26790 ft 364 kts 260°
2026-05-04 17:37 43.93832 1.59189 26393 ft 364 kts 260°
2026-05-04 17:38 43.93598 1.55690 25998 ft 364 kts 260°
2026-05-04 17:38 43.93364 1.52199 25637 ft 363 kts 259°
2026-05-04 17:38 43.93131 1.48757 25247 ft 362 kts 259°
2026-05-04 17:38 43.92896 1.45287 24872 ft 360 kts 259°
2026-05-04 17:39 43.92425 1.38378 24121 ft 358 kts 259°
2026-05-04 17:39 43.92189 1.34951 23749 ft 357 kts 259°
2026-05-04 17:39 43.91953 1.31533 23353 ft 355 kts 259°
2026-05-04 17:40 43.91718 1.28140 22940 ft 352 kts 259°
2026-05-04 17:40 43.91484 1.24773 22568 ft 348 kts 259°
2026-05-04 17:40 43.91253 1.21482 22216 ft 345 kts 259°
2026-05-04 17:40 43.91022 1.18183 21876 ft 341 kts 259°
2026-05-04 17:41 43.90791 1.14921 21515 ft 338 kts 259°
2026-05-04 17:41 43.90562 1.11686 21185 ft 335 kts 259°
2026-05-04 17:41 43.90335 1.08483 20841 ft 333 kts 259°
2026-05-04 17:41 43.90107 1.05290 20501 ft 331 kts 259°
2026-05-04 17:42 43.89879 1.02117 20164 ft 328 kts 259°
2026-05-04 17:42 43.89653 0.98977 19832 ft 326 kts 259°
2026-05-04 17:42 43.89429 0.95867 19501 ft 323 kts 259°
2026-05-04 17:42 43.89208 0.92809 19176 ft 321 kts 259°
2026-05-04 17:43 43.88888 0.89768 18766 ft 316 kts 248°
2026-05-04 17:43 43.87861 0.87163 18441 ft 304 kts 225°
2026-05-04 17:43 43.86318 0.85214 18114 ft 298 kts 217°
2026-05-04 17:43 43.84696 0.83418 17735 ft 297 kts 216°
2026-05-04 17:44 43.83063 0.81687 17384 ft 294 kts 215°
2026-05-04 17:44 43.81428 0.79998 17035 ft 292 kts 214°
2026-05-04 17:44 43.79796 0.78335 16693 ft 290 kts 214°
2026-05-04 17:44 43.78172 0.76696 16353 ft 288 kts 214°
2026-05-04 17:45 43.76549 0.75069 16027 ft 287 kts 214°
2026-05-04 17:45 43.74939 0.73462 15689 ft 285 kts 214°
2026-05-04 17:45 43.73350 0.71880 15365 ft 284 kts 214°
2026-05-04 17:45 43.71749 0.70288 15031 ft 282 kts 214°
2026-05-04 17:46 43.70157 0.68707 14700 ft 281 kts 214°
2026-05-04 17:46 43.68571 0.67133 14373 ft 280 kts 214°
2026-05-04 17:46 43.66990 0.65566 14049 ft 279 kts 214°
2026-05-04 17:46 43.65419 0.64009 13724 ft 278 kts 214°
2026-05-04 17:47 43.63849 0.62454 13357 ft 277 kts 215°
2026-05-04 17:47 43.62287 0.60907 13012 ft 276 kts 215°
2026-05-04 17:47 43.60719 0.59357 12641 ft 279 kts 215°
2026-05-04 17:47 43.59139 0.57795 12306 ft 279 kts 215°
2026-05-04 17:48 43.57558 0.56234 11999 ft 279 kts 215°
2026-05-04 17:48 43.55978 0.54675 11677 ft 279 kts 215°
2026-05-04 17:48 43.54930 0.53641 11463 ft 278 kts 215°
2026-05-04 17:48 43.52857 0.51597 11025 ft 276 kts 215°
2026-05-04 17:49 43.51302 0.50066 10717 ft 274 kts 216°
2026-05-04 17:49 43.49751 0.48539 10392 ft 274 kts 216°
2026-05-04 17:49 43.48203 0.47016 10072 ft 273 kts 216°
2026-05-04 17:49 43.46651 0.45490 9726 ft 273 kts 216°
2026-05-04 17:50 43.45110 0.43976 9380 ft 271 kts 216°
2026-05-04 17:50 43.43578 0.42471 9060 ft 270 kts 216°
2026-05-04 17:50 43.42055 0.40976 8767 ft 268 kts 217°
2026-05-04 17:50 43.40790 0.39114 8297 ft 271 kts 242°
2026-05-04 17:51 43.40086 0.36703 7888 ft 273 kts 249°
2026-05-04 17:51 43.39425 0.34264 7476 ft 269 kts 249°
2026-05-04 17:51 43.38778 0.31880 7083 ft 262 kts 249°
2026-05-04 17:51 43.38151 0.29565 6722 ft 255 kts 250°
2026-05-04 17:52 43.37548 0.27336 6343 ft 249 kts 250°
2026-05-04 17:52 43.36951 0.25137 5965 ft 243 kts 251°
2026-05-04 17:52 43.36368 0.22984 5576 ft 237 kts 251°
2026-05-04 17:52 43.35799 0.20887 5216 ft 231 kts 251°
2026-05-04 17:53 43.35242 0.18835 4860 ft 226 kts 252°
2026-05-04 17:53 43.34694 0.16819 4527 ft 226 kts 252°
2026-05-04 17:53 43.34143 0.14794 4207 ft 225 kts 252°
2026-05-04 17:53 43.33604 0.12814 3916 ft 218 kts 252°
2026-05-04 17:54 43.33084 0.10904 3554 ft 210 kts 251°
2026-05-04 17:54 43.32582 0.09059 3227 ft 202 kts 252°
2026-05-04 17:54 43.31998 0.07375 3067 ft 188 kts 233°
2026-05-04 17:54 43.31062 0.06267 3051 ft 173 kts 216°
2026-05-04 17:55 43.29986 0.05518 3031 ft 173 kts 206°
2026-05-04 17:55 43.28858 0.04952 3029 ft 173 kts 205°
2026-05-04 17:55 43.27723 0.04382 2977 ft 175 kts 205°
2026-05-04 17:55 43.26592 0.03809 2764 ft 167 kts 205°
2026-05-04 17:56 43.25551 0.03279 2582 ft 150 kts 206°
2026-05-04 17:56 43.24627 0.02808 2447 ft 137 kts 207°
2026-05-04 17:56 43.23744 0.02370 2279 ft 134 kts 205°
2026-05-04 17:56 43.22838 0.01960 2064 ft 139 kts 206°
2026-05-04 17:57 43.21902 0.01461 1860 ft 151 kts 206°
2026-05-04 17:57 43.20938 0.00940 1656 ft 148 kts 205°
2026-05-04 17:57 43.20003 0.00466 1450 ft 142 kts 205°
2026-05-04 17:57 43.19056 -0.00025 1227 ft 148 kts 204°
2026-05-04 17:58 43.18194 -0.00481 1216 ft 112 kts 200°
2026-05-04 17:58 43.17592 -0.00770 1227 ft 63 kts 200°
2026-05-04 17:58 43.17385 -0.00876 1234 ft 28 kts 201°
2026-05-04 17:58 43.17202 -0.00958 1255 ft 26 kts 195°
2026-05-04 17:59 43.17126 -0.00973 1255 ft 8 kts 160°
2026-05-04 17:59 43.17088 -0.00910 1249 ft 10 kts 117°
2026-05-04 17:59 43.17137 -0.00738 1255 ft 15 kts 24°
2026-05-04 18:00 43.17253 -0.00680 1240 ft 20 kts 19°
2026-05-04 18:00 43.17402 -0.00601 1234 ft 25 kts 21°
2026-05-04 18:00 43.17580 -0.00509 1227 ft 29 kts 22°
2026-05-04 18:00 43.17762 -0.00385 1222 ft 25 kts 28°
2026-05-04 18:01 43.17860 -0.00310 1220 ft 17 kts 28°
2026-05-04 18:01 43.17973 -0.00225 1216 ft 20 kts 31°
2026-05-04 18:01 43.18109 -0.00120 1212 ft 23 kts 28°
2026-05-04 18:02 43.18319 0.00040 1213 ft 14 kts 29°
2026-05-04 18:02 43.18364 0.00075 1250 ft 2 kts 29°
2026-05-04 18:02 43.18392 0.00097 1249 ft 7 kts 30°
2026-05-04 18:02 43.18438 0.00123 1247 ft 8 kts 18°
2026-05-04 18:03 43.18469 0.00153 1246 ft 4 kts 43°
2026-05-04 18:03 43.18487 0.00178 1246 ft 4 kts 45°
2026-05-04 18:03 43.18498 0.00194 1245 ft 1 kts 45°
2026-05-04 18:03 43.18500 0.00197 1245 ft 0 kts 45°
2026-05-04 18:04 43.18500 0.00198 1245 ft 0 kts 45°